sat.trackr.live / text

‹ back to catalog

STARLINK-32149

NORAD 60292 · 2024-132Q

PAYLOAD ACTIVE UNKNOWN

§ Identity

Operator
Country
US
Launch date
2024-07-28
Launch site
AFETR
Launch vehicle
Mass (kg)
RCS (m²)

Purposes: comms

External: N2YO · Heavens-Above · Gunter

§ Orbital elements

Epoch: 2026-05-25T04:59:46.048704Z

Period
94.05 min
Inclination
53.1612°
Eccentricity
0.0001071
Mean motion
15.31180203 rev/d
Perigee alt
471.6 km
Apogee alt
473.0 km
Semi-major
6,850.4 km
B*
3.4434e-3
RAAN
57.1571°
Arg perigee
86.0342°
Mean anomaly
274.0782°
Rev number
10,327

§ Raw data

STARLINK-321491 60292U 24132Q   26145.20817186  .00106282  00000+0  34434-2 0  99902 60292  53.1612  57.1571 0001071  86.0342 274.0782 15.31180203103274

JSON: /api/v1/satellites/60292 · /tle

For live sub-satellite position, see the globe view (requires WebGL).

§ Visibility from observer

Set your observer location to see the next 7 days of passes ≥ 10°. The values pass through the URL so the page stays shareable.

No JS? Fill the form by hand. The geolocation button needs JavaScript.